This demonstration page uses our WeatherBlox Daily Observations layout. Learn more.

Hourly Observations for April 7, 2019

Temp ( °F °C ) Dew Point ( °F °C ) Humidity (%) Winds ( mph kmh ) Pressure ( in mb ) Visibility ( mi km ) Precip ( " mm )
12:15 am 00:15 Cloudy 52 11 48 9 88 88 SW 3 6 30.3 1026 10 16.09344 0 0
12:35 am 00:35 Cloudy 52 11 50 10 94 94 Calm 30.3 1026 10 16.09344 0 0
12:55 am 00:55 Mostly Cloudy 54 12 48 9 82 82 SSW 5 7 30.3 1026 10 16.09344 0 0
1:15 am 01:15 Cloudy 50 10 50 10 100 100 S 3 6 30.3 1026 10 16.09344 0 0
1:35 am 01:35 Partly Cloudy 50 10 48 9 94 94 Calm 30.3 1026 10 16.09344 0 0
1:55 am 01:55 Clear 52 11 50 10 94 94 S 3 6 30.27 1025 10 16.09344 0 0
2:15 am 02:15 Clear 50 10 48 9 94 94 Calm 30.27 1025 10 16.09344 0 0
2:35 am 02:35 Clear 50 10 48 9 94 94 Calm 30.27 1025 10 16.09344 0 0
2:55 am 02:55 Clear 48 9 46 8 94 94 Calm 30.27 1025 10 16.09344 0 0
3:15 am 03:15 Clear 46 8 46 8 100 100 Calm 30.27 1025 10 16.09344 0 0
3:35 am 03:35 Clear 50 10 48 9 94 94 SE 3 6 30.27 1025 10 16.09344 0 0
3:55 am 03:55 Clear 46 8 46 8 100 100 Calm 30.27 1025 10 16.09344 0 0
4:15 am 04:15 Clear 46 8 46 8 100 100 Calm 30.24 1024 10 16.09344 0 0
4:35 am 04:35 Clear 45 7 45 7 100 100 Calm 30.24 1024 10 16.09344 0 0
4:55 am 04:55 Clear 43 6 43 6 100 100 Calm 30.27 1025 7 11.265408 0 0
5:15 am 05:15 Mostly Cloudy 43 6 43 6 100 100 Calm 30.27 1025 10 16.09344 0 0
5:35 am 05:35 Cloudy 45 7 45 7 100 100 Calm 30.27 1025 10 16.09344 0 0
5:55 am 05:55 Cloudy 46 8 46 8 100 100 Calm 30.27 1025 10 16.09344 0 0
6:15 am 06:15 Cloudy 48 9 46 8 94 94 E 3 6 30.27 1025 10 16.09344 0 0
6:35 am 06:35 Cloudy 46 8 46 8 100 100 Calm 30.27 1025 10 16.09344 0 0
6:55 am 06:55 Cloudy 45 7 45 7 100 100 Calm 30.27 1025 10 16.09344 0 0
7:15 am 07:15 Cloudy 46 8 46 8 100 100 Calm 30.27 1025 10 16.09344 0 0
7:35 am 07:35 Cloudy 46 8 46 8 100 100 Calm 30.3 1026 10 16.09344 0 0
7:55 am 07:55 Cloudy 50 10 48 9 94 94 Calm 30.3 1026 10 16.09344 0 0
8:15 am 08:15 Cloudy 50 10 48 9 94 94 Calm 30.3 1026 10 16.09344 0 0
8:35 am 08:35 Cloudy 52 11 50 10 94 94 Calm 30.3 1026 10 16.09344 0 0
8:55 am 08:55 Cloudy 52 11 50 10 94 94 Calm 30.3 1026 10 16.09344 0 0
9:15 am 09:15 Mostly Cloudy 54 12 52 11 94 94 Calm 30.3 1026 10 16.09344 0 0
9:35 am 09:35 Partly Cloudy 55 13 52 11 88 88 Calm 30.27 1025 10 16.09344 0 0
9:55 am 09:55 Partly Cloudy 59 15 54 12 82 82 Calm 30.27 1025 10 16.09344 0 0
10:15 am 10:15 Mostly Cloudy 61 16 54 12 77 77 SSW 5 7 30.27 1025 10 16.09344 0 0
10:35 am 10:35 Mostly Cloudy 63 17 55 13 77 77 S 7 11 30.27 1025 10 16.09344 0 0
10:55 am 10:55 Mostly Cloudy 64 18 52 11 64 64 S 10 17 30.24 1024 10 16.09344 0 0
11:15 am 11:15 Mostly Cloudy 66 19 50 10 56 56 S 10 17 30.24 1024 10 16.09344 0 0
11:35 am 11:35 Partly Cloudy 68 20 52 11 56 56 SSE 10 17 30.24 1024 10 16.09344 0 0
11:55 am 11:55 Partly Cloudy 70 21 52 11 53 53 SSE 12 19 30.21 1023 10 16.09344 0 0
12:15 pm 12:15 Mostly Cloudy 70 21 54 12 57 57 SSE 12 19 30.21 1023 10 16.09344 0 0
12:35 pm 12:35 Cloudy 70 21 54 12 57 57 SSW 12 19 30.21 1023 10 16.09344 0 0
12:55 pm 12:55 Cloudy 70 21 54 12 57 57 SSE 13 20 30.18 1022 10 16.09344 0 0
1:15 pm 13:15 Cloudy 70 21 55 13 60 60 SSW 10 17 30.18 1022 10 16.09344 0 0
1:35 pm 13:35 Cloudy 70 21 54 12 57 57 SSE 12 19 30.15 1021 10 16.09344 0 0
1:55 pm 13:55 Cloudy 72 22 55 13 57 57 SSE 15 24 30.15 1021 10 16.09344 0 0
2:15 pm 14:15 Cloudy 72 22 55 13 57 57 S 14 22 30.15 1021 10 16.09344 0 0
2:35 pm 14:35 Cloudy 70 21 55 13 60 60 S 12 19 30.15 1021 10 16.09344 0 0
2:55 pm 14:55 Cloudy 72 22 55 13 57 57 S 17 28 30.12 1020 10 16.09344 0 0
3:15 pm 15:15 Cloudy 72 22 55 13 57 57 S 14 22 30.12 1020 10 16.09344 0 0
3:35 pm 15:35 Cloudy 72 22 55 13 57 57 S 17 28 30.12 1020 10 16.09344 0 0
3:55 pm 15:55 Cloudy 72 22 55 13 57 57 S 12 19 30.09 1019 10 16.09344 0 0
4:15 pm 16:15 Cloudy 72 22 55 13 57 57 S 13 20 30.09 1019 10 16.09344 0 0
4:35 pm 16:35 Cloudy 72 22 55 13 57 57 S 10 17 30.09 1019 10 16.09344 0 0
4:55 pm 16:55 Cloudy 70 21 55 13 60 60 SSE 10 17 30.09 1019 10 16.09344 0 0
5:15 pm 17:15 Cloudy 70 21 55 13 60 60 S 12 19 30.09 1019 10 16.09344 0 0
5:35 pm 17:35 Cloudy 70 21 55 13 60 60 SSE 14 22 30.06 1018 10 16.09344 0 0
5:55 pm 17:55 Cloudy 70 21 55 13 60 60 S 10 17 30.06 1018 10 16.09344 0 0
6:15 pm 18:15 Cloudy 70 21 55 13 60 60 S 13 20 30.06 1018 10 16.09344 0 0
6:35 pm 18:35 Cloudy 70 21 55 13 60 60 S 14 22 30.06 1018 10 16.09344 0 0
6:55 pm 18:55 Cloudy 70 21 55 13 60 60 SSE 12 19 30.06 1018 10 16.09344 0 0
7:15 pm 19:15 Cloudy 70 21 55 13 60 60 SSE 12 19 30.06 1018 10 16.09344 0 0
7:35 pm 19:35 Cloudy 70 21 55 13 60 60 S 10 17 30.06 1018 10 16.09344 0 0
7:55 pm 19:55 Cloudy 70 21 55 13 60 60 S 13 20 30.06 1018 10 16.09344 0 0
8:15 pm 20:15 Cloudy 70 21 55 13 60 60 S 12 19 30.06 1018 10 16.09344 0 0
8:35 pm 20:35 Cloudy 68 20 55 13 64 64 S 8 13 30.06 1018 10 16.09344 0 0
8:55 pm 20:55 Cloudy 68 20 55 13 64 64 S 9 15 30.06 1018 10 16.09344 0 0
9:15 pm 21:15 Cloudy 68 20 55 13 64 64 S 10 17 30.06 1018 10 16.09344 0 0
9:35 pm 21:35 Cloudy 68 20 57 14 69 69 S 13 20 30.06 1018 10 16.09344 0 0
9:55 pm 21:55 Mostly Cloudy 64 18 59 15 83 83 S 9 15 30.06 1018 10 16.09344 0 0
10:15 pm 22:15 Cloudy 64 18 59 15 83 83 S 7 11 30.06 1018 10 16.09344 0 0
10:35 pm 22:35 Cloudy 64 18 59 15 83 83 S 8 13 30.03 1017 10 16.09344 0 0
10:55 pm 22:55 Cloudy 63 17 59 15 88 88 S 9 15 30.03 1017 10 16.09344 0 0
11:15 pm 23:15 Cloudy 63 17 59 15 88 88 S 6 9 30.03 1017 10 16.09344 0 0
11:35 pm 23:35 Cloudy 63 17 59 15 88 88 S 7 11 30.03 1017 10 16.09344 0 0
11:55 pm 23:55 Cloudy 61 16 59 15 94 94 SSW 6 9 30.03 1017 10 16.09344 0 0

Powered by AerisWeather